Regional Weather Roundup
Issued by NWS

Home | Current Version | Previous Version | Text Only | Print | Product List | Glossary Off
Versions: 1 2 3 4 5 6 7 8 9 10 11 12 13 14 15 16 17 18 19 20 21 22 23 24 25 26 27 28 29 30 31 32 33 34 35 36 37 38 39 40 41 42 43 44 45 46 47 48 49 50

000
ASUS45 KBOU 250707
RWRCO

WEATHER ROUNDUP FOR COLORADO
NATIONAL WEATHER SERVICE DENVER/BOULDER CO
100 AM MDT MON JUL 25 2016

NOTE: "FAIR" INDICATES FEW OR NO CLOUDS BELOW 12000 FEET WITH NO
SIGNIFICANT WEATHER AND/OR OBSTRUCTIONS TO VISIBILITY.

COZ001>005-013-030-031-250800-
...NORTHWEST COLORADO...

CITY           SKY/WX    TMP DP  RH WIND       PRES   REMARKS
CRAIG          FAIR      52  43  71 S3        30.23R
HAYDEN         FAIR      61  39  44 E9        30.26S
MEEKER         FAIR      59  41  51 E5        30.25S
MOUNT WERNER   NOT AVBL
STEAMBOAT SPGS FAIR      55  42  61 CALM      30.30R
WALDEN         FAIR      50  37  62 SE7       30.41F
$$

COZ006>008-011-250800-
...WEST CENTRAL VALLEYS...

CITY           SKY/WX    TMP DP  RH WIND       PRES   REMARKS
GRAND JUNCTION FAIR      81  40  23 SE13      30.07R
MONTROSE       FAIR      70  41  34 S7        30.19S
EAGLE          FAIR      59  43  55 SE5       30.31S
RIFLE          FAIR      68  39  34 CALM      30.17R
DELTA          FAIR      72  41  32 NE7       30.14F
NUCLA          FAIR     N/A N/A N/A E7        30.26R
$$

COZ017>023-064>068-250800-
...SOUTHWEST COLORADO...

CITY           SKY/WX    TMP DP  RH WIND       PRES   REMARKS
DURANGO        FAIR      64  48  56 N6        30.32S
CORTEZ         FAIR      71  45  39 NE5       30.22S
PAGOSA SPRINGS FAIR      60  40  48 CALM      30.41R
TELLURIDE      FAIR      56  41  56 SE7       30.50F
WOLF CREEK PAS FAIR      48  37  66 SW13      30.74S
$$

COZ009-010-012-014-032>034-037-058>063-250800-
...CENTRAL COLORADO...

CITY           SKY/WX    TMP DP  RH WIND       PRES   REMARKS
ASPEN          FAIR      58  39  49 S7        30.36S
BUENA VISTA    FAIR      53  47  81 W3        30.45S
COPPER MTN     FAIR      55  32  41 S14       30.72S
BERTHOUD PASS  FAIR      45  32  61 W9        30.75F
COTTONWOOD PAS FAIR      59  41  51 NW3       30.58S
GUNNISON       FAIR      55  37  50 N5        30.42R
KREMMLING      FAIR      50  45  81 CALM      30.39S
LEADVILLE      FAIR      49  34  56 CALM      30.56S
MONARCH PASS   MOCLDY    46  41  81 NE17      30.82S
SALIDA         FAIR      68  48  49 CALM      30.48S
SUNLIGHT       FAIR      61  32  33 CALM      30.63S
WILKERSON PASS FAIR      50  37  62 SW10G20   30.70F
$$

COZ069>075-250800-
...SAN LUIS VALLEY/SANGRE DE CRISTO MOUNTAINS...

CITY           SKY/WX    TMP DP  RH WIND       PRES   REMARKS
ALAMOSA        FAIR      59  46  62 E8        30.35R
LA VETA PASS   MOCLDY    50  45  81 CALM      30.60F
SAGUACHE       FAIR      61  43  51 CALM      30.40R
$$

COZ035-036-038>040-250800-
...NORTHERN COLORADO FRONT RANGE...

CITY           SKY/WX    TMP DP  RH WIND       PRES   REMARKS
DENVER INTL AP FAIR      61  55  81 SE14      30.27F
DMNS CITY PARK   N/A     64  55  74 E1        30.26S
AURORA         PTCLDY    60  56  85 S9        30.28F
FRONT RANGE AP NOT AVBL
ERIE MUNI ARPT FAIR      62  56  78 CALM      30.26F
BOULDER MUN AP FAIR      61  57  88 NW3       30.27F
CENTENNIAL     FAIR      62  53  72 S8        30.29F
BROOMFIELD     FAIR      64  54  68 NW3       30.29F
LONGMONT       FAIR      65  57  77 NE3       30.27F
$$

COZ041-046-047-076>085-087-088-250800-
...PIKES PEAK/PALMER DIVIDE AND SOUTHERN FOOTHILLS...

CITY           SKY/WX    TMP DP  RH WIND       PRES   REMARKS
COLO. SPRINGS  FAIR      62  54  74 NE3       30.35S
A. F. ACADEMY  FAIR      59  52  78 SE5       30.35S
SCHRIEVER AFB  NOT AVBL
ELLICOTT       FAIR     N/A N/A N/A E10       30.32S
FALCON         NOT AVBL
FORT CARSON    FAIR      60  55  84 E7        30.33R
LIMON          FAIR      57  55  93 S6        30.27F
MONUMENT HILL  FAIR      52  50  93 S7        30.39S
TRINIDAD       NOT AVBL
$$

COZ042>045-048>051-090-091-250800-
...NORTHEAST COLORADO...

CITY           SKY/WX    TMP DP  RH WIND       PRES   REMARKS
GREELEY ARPT   FAIR      61  55  82 S6        30.26F
AKRON          FAIR      61  56  83 S13       30.21F
BURLINGTON     FAIR      63  57  81 SE8       30.19F
WRAY           NOT AVBL
STERLING       FAIR      64  54  68 W9        30.18F
HOLYOKE        FAIR      63  55  77 W5        30.18F
FORT MORGAN    FAIR      58  54  85 W6        30.24S
$$

COZ086-089-092>099-250800-
...SOUTHEAST COLORADO...

CITY           SKY/WX    TMP DP  RH WIND       PRES   REMARKS
PUEBLO         FAIR      69  58  67 E12       30.27R
LA JUNTA       FAIR      67  61  81 E7        30.23S
LAMAR          FAIR      65  60  84 S3        30.18R
SPRINGFIELD      N/A     67  58  72 NE9       30.20F
$$



USA.gov is the U.S. government's official web portal to all federal, state and local government web resources and services.